Cloud_Cover
0 0 0 0 0 0 0 0 5 38 7 77 30 6 5 5 5 5 49 98 46 57 100 100 100 100 100 100 96 5 0 0 0 0 5 5 5 4 0 0 0 0 0 0 0 0 0
0 53 0 0 0 0 0 0 2 5 23 46 5 98 55 100 76 28 61 70 100 100 100 100 100 100 100 100 45 5 0 0 0 0 0 21 5 5 0 0 0 0 0 0 0 0 0
0 2 23 45 0 0 0 0 5 4 2 56 97 100 100 100 100 100 55 78 100 100 100 100 100 99 84 100 100 31 0 0 0 0 0 100 8 5 5 0 0 0 0 0 0 0 0
0 0 56 28 0 0 0 0 4 1 4 97 8 96 49 100 100 100 100 100 66 95 84 100 100 100 100 100 100 9 3 4 5 0 0 97 98 2 5 2 0 0 0 0 0 0 0
2 0 0 0 0 0 0 0 4 5 38 100 61 100 100 100 100 100 100 100 100 100 100 100 100 100 100 100 92 94 92 13 0 1 0 5 94 36 0 2 0 0 0 0 0 5 0
1 1 0 6 0 0 0 2 6 77 48 99 100 100 100 100 100 100 100 100 100 100 100 100 100 100 100 99 100 87 6 2 4 0 3 36 100 63 2 0 0 0 0 0 2 2 4
91 1 0 0 3 0 0 0 43 100 100 100 100 100 100 100 100 100 100 100 100 100 100 100 100 100 100 100 100 5 5 3 5 2 5 5 94 98 5 26 1 0 5 0 2 3 0
100 94 3 0 0 2 5 0 5 99 100 90 100 100 100 100 100 100 100 100 100 100 100 100 76 100 64 100 100 85 21 6 16 2 40 100 50 11 39 6 3 5 5 1 56 24 3
100 100 99 18 4 10 5 8 0 0 11 65 100 100 100 100 100 100 100 100 100 100 100 100 100 98 6 14 5 100 22 34 91 8 100 22 38 89 100 99 93 99 87 76 21 57 71
100 100 100 100 98 38 7 7 0 0 0 5 100 100 99 100 100 100 100 100 100 100 100 100 100 100 97 14 85 96 35 76 5 5 10 84 11 5 100 40 100 100 58 89 100 94 56
100 100 100 97 100 83 94 12 12 0 0 0 5 97 100 100 100 100 100 100 100 100 100 100 100 100 100 100 98 92 94 92 71 76 27 37 6 65 100 48 75 50 92 100 95 100 97
100 100 100 97 96 100 68 4 2 15 0 0 2 5 41 100 98 81 100 100 100 100 100 100 96 100 95 100 81 98 100 48 9 83 13 29 5 39 51 83 76 72 41 5 36 100 100
100 49 16 5 5 19 14 40 30 1 0 0 0 1 2 5 38 7 54 100 64 99 67 100 100 99 100 100 100 100 93 97 100 86 100 60 100 97 78 99 43 65 17 100 100 99 100
100 49 5 77 5 6 1 13 16 4 0 0 0 0 16 24 5 6 5 6 30 73 83 100 100 100 100 100 100 100 99 100 100 97 98 100 100 100 100 46 12 95 100 100 100 64 50
100 66 10 38 83 6 5 0 2 6 0 0 0 0 0 4 5 14 5 5 5 52 91 7 18 94 100 100 100 100 98 100 100 100 96 74 78 86 57 84 90 100 99 100 92 92 78
90 100 95 67 17 5 37 20 4 5 4 1 0 0 0 0 0 2 5 4 38 44 37 64 85 77 10 90 100 100 100 80 73 100 100 100 84 79 88 77 84 100 42 98 100 100 100
100 83 82 100 100 100 48 85 100 23 5 2 4 2 0 4 0 3 0 0 5 5 17 5 8 5 10 4 4 71 100 100 100 100 100 100 100 100 100 84 100 98 93 96 7 5 1
63 90 99 12 90 100 100 97 99 100 42 5 5 5 5 5 5 5 4 5 5 1 4 5 5 6 33 43 15 5 10 4 8 5 79 68 0 6 30 0 2 6 0 0 0 3 4
100 5 100 100 100 88 97 100 100 100 100 100 8 5 6 6 5 5 5 5 3 5 5 5 3 5 19 19 26 37 65 90 99 100 100 100 98 100 100 99 100 100 100 100 100 100 89
36 51 29 96 100 99 90 85 100 64 89 100 100 100 83 5 5 5 5 5 5 4 4 3 4 5 5 5 5 8 13 47 70 66 65 92 81 96 40 72 72 96 69 50 40 55 5
47 76 95 91 97 100 100 100 100 100 100 82 92 91 100 100 65 5 5 5 5 36 25 5 12 5 1 4 4 4 54 47 5 5 4 5 5 5 4 2 5 5 7 13 1 4 0
58 100 75 100 100 64 69 97 100 98 39 100 35 100 92 71 100 100 100 8 5 5 5 5 4 5 5 5 7 6 6 5 8 5 5 3 5 5 5 0 0 0 18 44 5 5 5
92 67 29 58 65 51 100 100 100 100 100 35 97 100 100 93 100 98 92 100 62 97 99 20 7 100 35 8 5 17 95 100 100 100 25 6 5 5 9 24 4 4 56 14 2 5 1
100 100 100 98 100 100 100 100 100 100 71 77 64 42 84 100 100 100 90 70 89 66 10 86 49 96 100 80 27 24 7 11 28 46 83 38 21 5 4 7 8 32 71 37 56 94 5
100 100 100 100 100 100 100 100 100 100 100 87 100 95 88 58 100 100 99 80 100 100 100 98 100 25 69 40 20 5 5 14 67 8 15 97 58 71 5 5 0 5 8 4 27 35 5
100 100 100 100 100 100 100 100 100 100 100 100 100 100 50 100 100 95 100 100 100 100 98 62 98 100 100 100 100 100 100 99 71 100 100 100 100 93 100 52 5 5 7 35 29 45 88
100 100 100 100 100 100 100 100 100 100 100 100 100 84 98 73 100 100 100 100 100 100 100 100 100 100 100 100 100 100 100 100 98 26 70 57 84 100 100 100 79 100 100 78 53 33 5
100 100 100 100 100 100 100 100 100 100 100 100 100 96 82 77 99 88 100 100 100 100 100 100 100 100 100 100 92 99 100 100 100 100 100 98 100 100 100 100 100 100 92 48 5 5 6
100 100 100 100 100 97 100 99 100 100 100 100 100 100 100 100 90 100 100 100 100 100 100 100 100 100 99 89 95 100 100 100 100 100 99 100 100 100 100 93 100 100 99 93 63 76 75